Curacao, Curacao

11:17 AM AST on October 19, 2017 (GMT -0400)
Willemstad-Hato International

Weather History for TNCC - February, 2013

Change the Weather History Date:

Monday, February 11, 2013

  Actual Average Record
Temperature  
Mean Temperature 80 °F -  
Max Temperature 84 °F 84 °F 87 °F (2000)
Min Temperature 75 °F 75 °F 73 °F (2007)
Cooling Degree Days 14    
Growing Degree Days 30 (Base 50)    
Moisture  
Dew Point 72 °F    
Average Humidity 77    
Maximum Humidity 89    
Minimum Humidity 63    
Precipitation  
Precipitation 0.00 in 0.03 in - ()
Sea Level Pressure  
Sea Level Pressure 29.98 in    
Wind  
Wind Speed 12 mph ()    
Max Wind Speed 17 mph    
Max Gust Speed -    
Visibility 7.7 miles    
Events Rain    
Averages and records for this station are not official NWS values.
T = Trace of Precipitation, MM = Missing Value Source: Averaged Metar Reports

Daily Weather History Graph

Daily Weather History Graph

Search for Another Location

Airport or City:

Trip Planner

Search our weather history database for the weather conditions in past years. The results will help you decide how hot, cold, wet, or windy it might be!

Date:

Astronomy

Feb. 11, 2013 Rise Set
Actual Time 6:58 AM AST 6:41 PM AST
Civil Twilight 6:37 AM AST 7:03 PM AST
Nautical Twilight 6:11 AM AST 7:28 PM AST
Astronomical Twilight 5:46 AM AST 7:53 PM AST
Moon 7:45 AM AST (2/11) 8:04 PM AST (2/11)
Length of Visible Light 12h 26m
Length of Day
11h 42m
New Moon, 2% of the Moon is Illuminated
Feb 11
New Moon
Feb 17
First Quarter
Feb 25
Full
Mar 4
Last Quarter
Mar 11
New

Hourly Weather History & Observations

Time (AST) Temp. Heat Index Dew Point Humidity Pressure Visibility Wind Dir Wind Speed Gust Speed Precip Events Conditions
12:00 AM 75.2 °F - 71.6 °F 89% 30.01 in 6.2 mi ENE 11.5 mph - N/A   Scattered Clouds
1:00 AM 77.0 °F - 73.4 °F 89% 29.98 in 6.2 mi ENE 12.7 mph - N/A   Scattered Clouds
2:00 AM 78 °F - 73 °F 80% 29.99 in 19 mi East 12.7 mph - -   Partly Cloudy
2:00 AM 78.8 °F - 73.4 °F 83% 29.98 in 6.2 mi East 12.7 mph - N/A   Scattered Clouds
3:00 AM 78.8 °F - 71.6 °F 78% 29.95 in 6.2 mi East 13.8 mph - N/A   Scattered Clouds
4:00 AM 75.2 °F - 69.8 °F 83% 29.95 in 6.2 mi East 15.0 mph - N/A   Scattered Clouds
5:00 AM 77.0 °F - 73.4 °F 89% 29.95 in 6.2 mi East 11.5 mph - N/A   Scattered Clouds
6:00 AM 78.8 °F - 71.6 °F 78% 29.95 in 6.2 mi East 12.7 mph - N/A   Scattered Clouds
7:00 AM 78.8 °F - 71.6 °F 78% 29.98 in 6.2 mi East 12.7 mph - N/A Rain Light Rain Showers
8:00 AM 75.2 °F - 71.6 °F 89% 30.01 in 6.2 mi East 17.3 mph - N/A   Mostly Cloudy
9:00 AM 77.0 °F - 71.6 °F 83% 30.04 in 6.2 mi ENE 16.1 mph - N/A Rain Rain Showers
11:00 AM 78.8 °F - 75.2 °F 89% 30.04 in 6.2 mi ESE 8.1 mph - N/A   Mostly Cloudy
12:00 PM 84.2 °F 90.9 °F 73.4 °F 70% 30.01 in 6.2 mi ENE 15.0 mph - N/A   Scattered Clouds
1:00 PM 82.4 °F 88.2 °F 73.4 °F 74% 30.01 in 6.2 mi East 15.0 mph - N/A   Scattered Clouds
2:00 PM 83 °F - 73 °F 64% 29.98 in 9 mi East 13.8 mph - -   Partly Cloudy
2:00 PM 84.2 °F 90.9 °F 73.4 °F 70% 29.98 in 6.2 mi East 12.7 mph - N/A   Scattered Clouds
3:00 PM 84.2 °F 90.9 °F 73.4 °F 70% 29.98 in 6.2 mi East 12.7 mph - N/A   Partly Cloudy
4:00 PM 84.2 °F 89.6 °F 71.6 °F 66% 29.95 in 6.2 mi East 13.8 mph - N/A   Partly Cloudy
5:00 PM 82 °F - 72 °F 63% 29.94 in 16 mi East 13.8 mph - -   Scattered Clouds
5:00 PM 82.4 °F 87.2 °F 71.6 °F 70% 29.92 in 6.2 mi East 13.8 mph - N/A   Partly Cloudy
7:00 PM 78.8 °F - 71.6 °F 78% 29.95 in 6.2 mi East 11.5 mph - N/A   Scattered Clouds
8:00 PM 79 °F - 71 °F 70% 29.96 in 19 mi East 13.8 mph - -   Scattered Clouds
8:00 PM 78.8 °F - 71.6 °F 78% 29.95 in 6.2 mi East 13.8 mph - N/A   Partly Cloudy
9:00 PM 78.8 °F - 69.8 °F 74% 29.98 in 6.2 mi East 12.7 mph - N/A   Partly Cloudy
10:00 PM 78.8 °F - 68.0 °F 69% 29.98 in 6.2 mi East 15.0 mph - N/A   Partly Cloudy
11:00 PM 78.8 °F - 68.0 °F 69% 30.01 in 6.2 mi East 13.8 mph - N/A   Partly Cloudy